Regional Weather Roundup
Issued by NWS

Home | Current Version | Previous Version | Graphics & Text | Print | Product List | Glossary Off
Versions: 1 2 3 4 5 6 7 8 9 10 11 12 13 14 15 16 17 18 19 20 21 22 23 24 25 26 27 28 29 30 31 32 33 34 35 36 37 38 39 40 41 42 43 44 45 46 47 48 49 50

000
ASUS43 KMKX 260611
RWRWI

WISCONSIN REGIONAL WEATHER ROUNDUP
NATIONAL WEATHER SERVICE MILWAUKEE/SULLIVAN WI
100 AM CDT TUE JUL 26 2016

NOTE: "FAIR" INDICATES FEW OR NO CLOUDS BELOW 12,000 FEET WITH NO
SIGNIFICANT WEATHER AND/OR OBSTRUCTIONS TO VISIBILITY.

WIZ001-002-006>008-014>016-023>028-260700-
NORTHWEST WISCONSIN

CITY           SKY/WX    TMP DP  RH WIND       PRES   REMARKS
SUPERIOR ARPT  CLEAR     69  65  89 SW7       29.98S
6HR MIN TEMP:  69; 6HR MAX TEMP:  83;

ASHLAND        CLEAR     69  64  84 SW7       30.00S
6HR MIN TEMP:  65; 6HR MAX TEMP:  82;

HAYWARD        CLEAR     63  61  93 CALM      30.04S
6HR MIN TEMP:  63; 6HR MAX TEMP:  82;

SIREN          CLEAR     68  64  88 CALM      30.04R
CUMBERLAND     CLEAR     63  61  94 CALM      30.05S
RICE LAKE      FOG       64  62  95 CALM      30.06S VSB 1/4
6HR MIN TEMP:  63; 6HR MAX TEMP:  80;

CHETEK         CLEAR     65  65  98 CALM      30.05S
6HR MIN TEMP:  65; 6HR MAX TEMP:  81;

LADYSMITH      CLEAR     64  62  94 CALM      30.06F
6HR MIN TEMP:  63; 6HR MAX TEMP:  80;

EAU CLAIRE     CLEAR     67  65  93 CALM      30.04S
6HR MIN TEMP:  67; 6HR MAX TEMP:  82;

MENOMONIE      CLEAR     67  62  84 CALM      30.05S
6HR MIN TEMP:  67; 6HR MAX TEMP:  83;

NEW RICHMOND   CLEAR     66  65  97 CALM      30.05S
6HR MIN TEMP:  66; 6HR MAX TEMP:  82;

OSCEOLA        CLEAR     66  66 100 CALM      30.07R
6HR MIN TEMP:  65; 6HR MAX TEMP:  83;

$$

WIZ003>005-009-010-017-018-260700-
NORTH CENTRAL WISCONSIN

CITY           SKY/WX    TMP DP  RH WIND       PRES   REMARKS
MANITOWISH WTR CLEAR     59  59 100 CALM      30.05S FOG
6HR MIN TEMP:  58; 6HR MAX TEMP:  77;

ARBOR VITAE    CLEAR     63  60  91 CALM      30.06S
6HR MIN TEMP:  62; 6HR MAX TEMP:  78;

WOODRUFF       CLEAR     63  60  91 CALM      30.06S
6HR MIN TEMP:  62; 6HR MAX TEMP:  78;

RHINELANDER    MOCLDY    63  60  90 W5        30.07S
6HR MIN TEMP:  58; 6HR MAX TEMP:  79;

EAGLE RIVER    CLEAR     60  60 100 SW5       30.05S
6HR MIN TEMP:  56; 6HR MAX TEMP:  77;

LAND O LAKES   CLEAR     56  56  99 CALM      30.06S
6HR MIN TEMP:  55; 6HR MAX TEMP:  77;

PHILLIPS       CLEAR     61  60  96 CALM      30.05S
6HR MIN TEMP:  61; 6HR MAX TEMP:  78;

TOMAHAWK       CLEAR     58  56  94 CALM      30.07S
6HR MIN TEMP:  57; 6HR MAX TEMP:  78;

MEDFORD        CLEAR     58  58 100 CALM      30.07S
6HR MIN TEMP:  58; 6HR MAX TEMP:  77;

MERRILL        CLEAR     59  59 100 CALM      30.07S
6HR MIN TEMP:  59; 6HR MAX TEMP:  79;

$$

WIZ029-030-035-036-043>047-260700-
CENTRAL WISCONSIN

CITY           SKY/WX    TMP DP  RH WIND       PRES   REMARKS
WAUSAU         CLEAR     65  62  90 CALM      30.05R
6HR MIN TEMP:  65; 6HR MAX TEMP:  81;

MOSINEE        CLEAR     64  61  88 W5        30.07S
MARSHFIELD     CLEAR     65  60  84 CALM      30.06S
6HR MIN TEMP:  64; 6HR MAX TEMP:  80;

STEVENS POINT  CLEAR     61  60  97 CALM      30.06S
6HR MIN TEMP:  61; 6HR MAX TEMP:  79;

WAUPACA        CLEAR     67  65  92 CALM      30.05R
6HR MIN TEMP:  67; 6HR MAX TEMP:  83;

WAUTOMA        CLEAR     63  62  97 CALM      30.06R
6HR MIN TEMP:  63; 6HR MAX TEMP:  81;

WISC RAPIDS    CLEAR     65  61  87 CALM      30.07R
6HR MIN TEMP:  64; 6HR MAX TEMP:  82;

CAMP DOUGLAS   FOG       59  59 100 CALM      30.06S VSB 1/2
$$

WIZ011>013-019>022-031-037>040-048>050-260700-
NORTHEAST WISCONSIN

CITY           SKY/WX    TMP DP  RH WIND       PRES   REMARKS
ANTIGO         CLEAR     59  58  96 CALM      30.08R
6HR MIN TEMP:  59; 6HR MAX TEMP:  77;

SHAWANO        CLEAR     65  62  91 CALM      30.04R
6HR MIN TEMP:  64; 6HR MAX TEMP:  83;

OCONTO         CLEAR    N/A N/A N/A CALM      30.01S
STURGEON BAY   CLEAR     69  64  84 CALM      30.03R
6HR MIN TEMP:  67; 6HR MAX TEMP:  81;

GREEN BAY      CLEAR     67  64  90 W7        30.02R
6HR MIN TEMP:  64; 6HR MAX TEMP:  81;

MANITOWOC      CLEAR     70  62  76 MISG      30.02S
6HR MIN TEMP:  70; 6HR MAX TEMP:  82; 6HR PCP:  0.02;

APPLETON       CLEAR     66  59  77 W9        30.03R
CLINTONVILLE   CLEAR     66  61  82 W5        30.04R
OSHKOSH        CLEAR     69  61  75 W5        30.03S
6HR MIN TEMP:  69; 6HR MAX TEMP:  82;

$$

WIZ032>034-041-042-053>061-260700-
SOUTHWEST WISCONSIN

CITY           SKY/WX    TMP DP  RH WIND       PRES   REMARKS
LA CROSSE      PTCLDY    70  66  87 SE5       30.05S
6HR MIN TEMP:  70; 6HR MAX TEMP:  84;

SPARTA         PTCLDY    60  60 100 CALM      30.07S
6HR MIN TEMP:  60; 6HR MAX TEMP:  81;

VIROQUA        PTCLDY    64  64 100 CALM      30.08S
6HR MIN TEMP:  64; 6HR MAX TEMP:  79;

BOSCOBEL       FOG       64  63  96 CALM      30.06S VSB 1/4
6HR MIN TEMP:  64; 6HR MAX TEMP:  83;

PRAIRIE DU CHI CLEAR     66  64  93 CALM      30.06S
6HR MIN TEMP:  65; 6HR MAX TEMP:  82;

PLATTEVILLE    CLEAR     67  66  95 N3        30.07S
6HR MIN TEMP:  67; 6HR MAX TEMP:  80;

$$

WIZ056-057-062-063-064-067-068-260700-
SOUTH CENTRAL WISCONSIN

CITY           SKY/WX    TMP DP  RH WIND       PRES   REMARKS
REEDSBURG      CLEAR     66  66 100 CALM      30.06S
6HR MIN TEMP:  65; 6HR MAX TEMP:  81;

BARABOO/DELLS  CLEAR     64  62  91 CALM      30.07R
6HR MIN TEMP:  64; 6HR MAX TEMP:  80;

LONE ROCK      CLEAR     63  62  97 CALM      30.06S FOG
6HR MIN TEMP:  63; 6HR MAX TEMP:  82;

MINERAL POINT  CLEAR     68  64  88 N3        30.07S
MADISON        CLEAR     67  65  93 CALM      30.05R
6HR MIN TEMP:  67; 6HR MAX TEMP:  83;

MIDDLETON      CLEAR     66  66  99 CALM      30.06S
6HR MIN TEMP:  66; 6HR MAX TEMP:  82;

WATERTOWN      CLEAR     65  65 100 CALM      30.04S
6HR MIN TEMP:  64; 6HR MAX TEMP:  81;

MONROE         CLEAR     72  63  73 NW6       30.06S
JANESVILLE     CLEAR     68  66  94 CALM      30.05R FOG
$$

WIZ051-052-058>065-066-070>072-260700-
SOUTHEAST WISCONSIN

CITY           SKY/WX    TMP DP  RH WIND       PRES   REMARKS
MILWAUKEE      CLEAR     75  64  68 W3        30.03S
6HR MIN TEMP:  73; 6HR MAX TEMP:  81;

WAUKESHA       CLEAR     66  63  88 CALM      30.06R
MILWAUKEE/TIMM CLEAR     70  59  68 CALM      30.04R
RACINE         CLEAR     69  62  78 CALM      30.05R
6HR MIN TEMP:  69; 6HR MAX TEMP:  81;

BURLINGTON     CLEAR     64  63  98 CALM      30.04S
6HR MIN TEMP:  63; 6HR MAX TEMP:  82;

KENOSHA        CLEAR     66  62  87 SW3       30.04R
6HR MIN TEMP:  66; 6HR MAX TEMP:  81;

FOND DU LAC    CLEAR     70  61  73 W6        30.04R
6HR MIN TEMP:  68; 6HR MAX TEMP:  82;

SHEBOYGAN      CLEAR     64  61  90 W3        30.03S
6HR MIN TEMP:  63; 6HR MAX TEMP:  81;

WEST BEND      CLEAR     64  63  94 CALM      30.04S
JUNEAU         CLEAR     64  63  96 CALM      30.06S
6HR MIN TEMP:  64; 6HR MAX TEMP:  80;

$$

LSZ147-162-260700-
LAKE SUPERIOR

STATION/POSITION TIME  TEMP    WIND        PRES    WAVE
                       AIR SEA DIR/SP/G            HT/PER
                 (UTC) (F)     (DEG/KT/KT) (MB)    (FT/S)
W MID LAKE BUOY  0550   64 60  220/  6/  8 1013.7S   1
DEVILS ISLAND    0600   68     230/ 10/ 11 1014.7R
SAXON HARBOR     0540   70     200/  7/ 10 1014.9S
$$

LMZ867-665-643>646-260700-
LAKE MICHIGAN

STATION/POSITION TIME  TEMP    WIND        PRES    WAVE
                       AIR SEA DIR/SP/G            HT/PER
                 (UTC) (F)     (DEG/KT/KT) (MB)    (FT/S)
CHAMBERS ISLAND  0500   70     260/  4/  6 1015.9R
S GREEN BAY BUOY 0500   73 74  280/  8/  8   N/A
N MID LAKC1F1C2F2C3F3C4F4C5F5C6F6C7F7C8M1C9M2Ca!



USA.gov is the U.S. government's official web portal to all federal, state and local government web resources and services.